Marysville, OH

5:47 PM EDT on July 24, 2017 (GMT -0400)
Marysville

Weather History for KMRT - August, 2013

Change the Weather History Date:

Friday, August 9, 2013

  Actual Average (KDLZ) Record (KDLZ)
Temperature  
Mean Temperature 70 °F -  
Max Temperature 78 °F 83 °F 95 °F (1941)
Min Temperature 62 °F 60 °F 46 °F (1989)
Cooling Degree Days 5    
Growing Degree Days 20 (Base 50)    
Moisture  
Dew Point 62 °F    
Average Humidity 78    
Maximum Humidity 92    
Minimum Humidity 53    
Precipitation  
Precipitation 0.13 in - - ()
Sea Level Pressure  
Sea Level Pressure 29.99 in    
Wind  
Wind Speed 4 mph (North)    
Max Wind Speed 9 mph    
Max Gust Speed -    
Visibility 8 miles    
Events      
Averages and records for this station are not official NWS values.
T = Trace of Precipitation, MM = Missing Value Source: NWS Daily Summary

Daily Weather History Graph

Daily Weather History Graph

Search for Another Location

Airport or City:

Trip Planner

Search our weather history database for the weather conditions in past years. The results will help you decide how hot, cold, wet, or windy it might be!

Date:

Astronomy

Aug. 09, 2013 Rise Set
Actual Time 6:39 AM EDT 8:37 PM EDT
Civil Twilight 6:09 AM EDT 9:07 PM EDT
Nautical Twilight 5:33 AM EDT 9:43 PM EDT
Astronomical Twilight 4:53 AM EDT 10:22 PM EDT
Moon 9:24 AM EDT (8/9) 9:46 PM EDT (8/9)
Length of Visible Light 14h 58m
Length of Day
13h 58m
Waxing Crescent, 7% of the Moon is Illuminated
Aug 9
Waxing Crescent
Aug 14
First Quarter
Aug 20
Full
Aug 28
Last Quarter
Sep 5
New

Hourly Weather History & Observations

Time (EDT) Temp. Dew Point Humidity Pressure Visibility Wind Dir Wind Speed Gust Speed Precip Events Conditions
12:13 AM 69.8 °F 66.6 °F 89% 29.96 in 5.0 mi NE 4.6 mph - N/A   Overcast
12:34 AM 69.4 °F 66.6 °F 91% 29.96 in 4.0 mi NNE 4.6 mph - N/A   Overcast
12:53 AM 69.4 °F 66.6 °F 91% 29.95 in 4.0 mi NE 3.5 mph - N/A   Overcast
1:13 AM 69.3 °F 66.6 °F 91% 29.95 in 3.0 mi NE 3.5 mph - N/A   Overcast
1:33 AM 69.4 °F 66.7 °F 91% 29.95 in 3.0 mi Calm Calm - N/A   Overcast
1:53 AM 69.4 °F 66.7 °F 91% 29.95 in 3.0 mi Calm Calm - N/A   Overcast
2:14 AM 69.4 °F 66.7 °F 91% 29.95 in 2.5 mi North 3.5 mph - N/A   Overcast
2:33 AM 69.3 °F 66.7 °F 92% 29.95 in 2.5 mi Calm Calm - N/A   Overcast
2:53 AM 69.1 °F 66.6 °F 92% 29.94 in 3.0 mi North 3.5 mph - N/A   Overcast
3:14 AM 69.1 °F 66.4 °F 91% 29.94 in 4.0 mi Calm Calm - N/A   Overcast
3:33 AM 68.9 °F 66.4 °F 92% 29.94 in 4.0 mi North 4.6 mph - N/A   Overcast
3:53 AM 68.9 °F 66.2 °F 91% 29.93 in 4.0 mi Calm Calm - N/A   Overcast
4:14 AM 68.9 °F 65.8 °F 90% 29.94 in 4.0 mi NNE 4.6 mph - N/A   Overcast
4:33 AM 68.9 °F 65.8 °F 90% 29.94 in 4.0 mi North 3.5 mph - N/A   Overcast
4:53 AM 68.5 °F 65.7 °F 90% 29.94 in 4.0 mi NNE 5.8 mph - N/A   Overcast
5:14 AM 68.2 °F 65.3 °F 90% 29.94 in 4.0 mi NNE 8.1 mph - N/A   Overcast
5:33 AM 67.5 °F 64.2 °F 89% 29.94 in 5.0 mi NNE 5.8 mph - N/A   Overcast
5:53 AM 67.1 °F 63.9 °F 89% 29.94 in 5.0 mi NNE 6.9 mph - N/A   Overcast
6:14 AM 67.1 °F 63.5 °F 88% 29.95 in 7.0 mi NNE 4.6 mph - N/A   Overcast
6:33 AM 67.1 °F 62.8 °F 86% 29.95 in 10.0 mi North 5.8 mph - N/A   Overcast
6:53 AM 66.9 °F 62.2 °F 85% 29.96 in 10.0 mi North 5.8 mph - N/A   Overcast
7:14 AM 66.7 °F 62.4 °F 86% 29.96 in 10.0 mi NNE 3.5 mph - N/A   Overcast
7:33 AM 66.9 °F 62.6 °F 86% 29.96 in 10.0 mi NNE 8.1 mph - N/A   Overcast
7:53 AM 66.2 °F 61.5 °F 85% 29.97 in 10.0 mi NE 4.6 mph - N/A   Overcast
8:14 AM 66.2 °F 61.2 °F 84% 29.97 in 10.0 mi NNE 4.6 mph - N/A   Overcast
8:33 AM 65.7 °F 60.1 °F 82% 29.98 in 10.0 mi North 5.8 mph - N/A   Overcast
8:53 AM 65.5 °F 60.1 °F 83% 29.99 in 10.0 mi North 4.6 mph - N/A   Overcast
9:14 AM 65.3 °F 60.4 °F 84% 29.99 in 4.0 mi NNE 5.8 mph - 0.01 in   Overcast
9:33 AM 64.4 °F 60.6 °F 88% 30.00 in 1.2 mi North 8.1 mph - 0.03 in   Overcast
9:53 AM 62.2 °F 59.0 °F 89% 30.00 in 2.5 mi NNE 5.8 mph - 0.12 in   Overcast
10:14 AM 62.6 °F 59.9 °F 91% 30.00 in 2.5 mi NNE 4.6 mph - N/A   Overcast
10:33 AM 63.3 °F 60.4 °F 90% 30.00 in 3.0 mi NNE 4.6 mph - 0.01 in   Overcast
10:53 AM 64.4 °F 60.8 °F 88% 30.01 in 10.0 mi NNW 3.5 mph - 0.01 in   Overcast
11:14 AM 64.4 °F 60.3 °F 86% 30.01 in 10.0 mi Calm Calm - N/A   Overcast
11:33 AM 64.9 °F 59.4 °F 82% 30.01 in 10.0 mi Calm Calm - N/A   Overcast
11:53 AM 66.4 °F 59.5 °F 79% 30.01 in 10.0 mi NNW 3.5 mph - N/A   Overcast
12:13 PM 67.1 °F 58.8 °F 75% 30.01 in 10.0 mi Calm Calm - N/A   Overcast
12:34 PM 68.4 °F 59.2 °F 72% 30.01 in 10.0 mi North 4.6 mph - N/A   Overcast
12:54 PM 69.8 °F 60.6 °F 73% 30.00 in 10.0 mi NNE 4.6 mph - N/A   Mostly Cloudy
1:13 PM 70.7 °F 61.2 °F 72% 30.01 in 10.0 mi North 4.6 mph - N/A   Scattered Clouds
1:34 PM 73.0 °F 60.8 °F 65% 30.01 in 10.0 mi North 4.6 mph - N/A   Clear
1:54 PM 74.3 °F 56.1 °F 53% 30.01 in 10.0 mi North 6.9 mph - N/A   Mostly Cloudy
2:13 PM 74.5 °F 57.9 °F 56% 30.01 in 10.0 mi North 3.5 mph - N/A   Scattered Clouds
2:34 PM 75.6 °F 59.7 °F 58% 30.01 in 10.0 mi North 6.9 mph - N/A   Scattered Clouds
2:54 PM 76.1 °F 60.4 °F 58% 30.01 in 10.0 mi NE 4.6 mph - N/A   Clear
3:13 PM 76.3 °F 60.1 °F 57% 30.01 in 10.0 mi North 4.6 mph - N/A   Clear
3:34 PM 77.0 °F 60.8 °F 57% 30.01 in 10.0 mi NNW 5.8 mph - N/A   Clear
3:54 PM 77.2 °F 60.8 °F 57% 30.01 in 10.0 mi North 9.2 mph - N/A   Scattered Clouds
4:13 PM 77.5 °F 61.3 °F 57% 30.00 in 10.0 mi North 5.8 mph - N/A   Scattered Clouds
4:34 PM 78.3 °F 61.7 °F 57% 30.00 in 10.0 mi North 4.6 mph - N/A   Mostly Cloudy
4:53 PM 76.3 °F 59.9 °F 57% 30.00 in 10.0 mi North 8.1 mph - N/A   Mostly Cloudy
5:13 PM 76.6 °F 60.3 °F 57% 30.00 in 10.0 mi North 8.1 mph - N/A   Scattered Clouds
5:34 PM 77.9 °F 60.6 °F 55% 30.00 in 10.0 mi North 6.9 mph - N/A   Scattered Clouds
5:53 PM 77.7 °F 60.1 °F 54% 30.00 in 10.0 mi North 6.9 mph - N/A   Scattered Clouds
6:13 PM 77.7 °F 59.5 °F 53% 30.00 in 10.0 mi North 5.8 mph - N/A   Clear
6:34 PM 77.2 °F 60.1 °F 55% 30.00 in 10.0 mi North 6.9 mph - N/A   Clear
6:53 PM 76.1 °F 59.4 °F 56% 30.00 in 10.0 mi NNW 5.8 mph - N/A   Clear
7:14 PM 75.2 °F 59.4 °F 58% 30.00 in 10.0 mi North 5.8 mph - N/A   Clear
7:33 PM 74.7 °F 59.9 °F 60% 30.01 in 10.0 mi North 4.6 mph - N/A   Clear
7:53 PM 74.3 °F 60.1 °F 61% 30.01 in 10.0 mi Calm Calm - N/A   Clear
8:14 PM 73.6 °F 60.1 °F 63% 30.02 in 10.0 mi Calm Calm - N/A   Clear
8:33 PM 72.0 °F 60.6 °F 67% 30.02 in 10.0 mi Calm Calm - N/A   Clear
8:54 PM 67.6 °F 61.7 °F 81% 30.02 in 7.0 mi Calm Calm - N/A   Clear
9:14 PM 66.7 °F 61.9 °F 84% 30.03 in 5.0 mi Calm Calm - N/A   Clear
9:33 PM 66.6 °F 62.6 °F 87% 30.04 in 10.0 mi Calm Calm - N/A   Clear
9:54 PM 66.4 °F 62.8 °F 88% 30.05 in 10.0 mi Calm Calm - N/A   Clear
10:14 PM 66.9 °F 62.4 °F 85% 30.04 in 10.0 mi Calm Calm - N/A   Clear
10:33 PM 67.1 °F 62.2 °F 84% 30.05 in 10.0 mi SSW 3.5 mph - N/A   Clear
10:54 PM 66.2 °F 62.1 °F 86% 30.05 in 10.0 mi Calm Calm - N/A   Clear
11:14 PM 66.2 °F 62.8 °F 89% 30.05 in 10.0 mi Calm Calm - N/A   Clear
11:33 PM 66.0 °F 62.1 °F 87% 30.06 in 10.0 mi Calm Calm - N/A   Clear
11:54 PM 65.8 °F 62.2 °F 88% 30.05 in 10.0 mi Calm Calm - N/A   Clear